Time,TemperatureF,DewpointF,PressureIn,WindDirection,WindDirectionDegrees,WindSpeedMPH,WindSpeedGustMPH,Humidity,HourlyPrecipIn,Conditions,Clouds,dailyrainin,SoftwareType,DateUTC
2013-02-21 00:14:00,60.5,57.0,30.08,SE,124,3.0,5.0,88,0.00,,,0.00,weatherlink.com 1.10,2013-02-21 05:14:00,
2013-02-21 00:30:00,60.1,57.0,30.07,ESE,121,4.0,4.0,89,0.00,,,0.00,weatherlink.com 1.10,2013-02-21 05:30:00,
2013-02-21 00:45:00,60.0,57.0,30.07,ESE,113,2.0,7.0,88,0.00,,,0.00,weatherlink.com 1.10,2013-02-21 05:45:00,
2013-02-21 01:00:00,60.4,58.0,30.07,ESE,103,0.0,5.0,90,0.00,,,0.00,weatherlink.com 1.10,2013-02-21 06:00:00,
2013-02-21 01:15:00,61.3,58.0,30.07,East,96,3.0,7.0,90,0.00,,,0.00,weatherlink.com 1.10,2013-02-21 06:15:00,
2013-02-21 01:30:00,61.0,58.0,30.07,East,92,1.0,6.0,90,0.00,,,0.00,weatherlink.com 1.10,2013-02-21 06:30:00,
2013-02-21 01:45:00,61.3,58.0,30.06,East,82,5.0,7.0,90,0.00,,,0.00,weatherlink.com 1.10,2013-02-21 06:45:00,
2013-02-21 02:00:00,61.4,59.0,30.06,ENE,78,3.0,7.0,92,0.00,,,0.00,weatherlink.com 1.10,2013-02-21 07:00:00,
2013-02-21 02:15:00,61.0,59.0,30.06,ENE,57,2.0,5.0,92,0.00,,,0.00,weatherlink.com 1.10,2013-02-21 07:15:00,
2013-02-21 02:30:00,61.1,59.0,30.05,ENE,73,4.0,7.0,92,0.00,,,0.00,weatherlink.com 1.10,2013-02-21 07:30:00,
2013-02-21 02:45:00,61.2,59.0,30.05,NE,42,4.0,6.0,92,0.00,,,0.00,weatherlink.com 1.10,2013-02-21 07:45:00,
2013-02-21 03:00:00,60.6,59.0,30.05,NE,36,2.0,5.0,93,0.00,,,0.00,weatherlink.com 1.10,2013-02-21 08:00:00,
2013-02-21 03:15:00,60.4,59.0,30.04,NE,39,2.0,5.0,94,0.00,,,0.00,weatherlink.com 1.10,2013-02-21 08:15:00,
2013-02-21 03:30:00,60.4,59.0,30.05,NNE,32,3.0,5.0,94,0.00,,,0.00,weatherlink.com 1.10,2013-02-21 08:30:00,
2013-02-21 03:45:00,60.6,59.0,30.04,NE,48,4.0,6.0,94,0.00,,,0.00,weatherlink.com 1.10,2013-02-21 08:45:00,
2013-02-21 04:00:00,60.5,59.0,30.04,NE,49,2.0,7.0,94,0.00,,,0.00,weatherlink.com 1.10,2013-02-21 09:00:00,
2013-02-21 04:15:00,60.5,59.0,30.04,NNE,28,4.0,5.0,94,0.00,,,0.00,weatherlink.com 1.10,2013-02-21 09:15:00,
2013-02-21 04:30:00,60.2,59.0,30.04,NNE,25,5.0,6.0,95,0.00,,,0.00,weatherlink.com 1.10,2013-02-21 09:30:00,
2013-02-21 04:45:00,59.9,59.0,30.05,NNE,24,4.0,6.0,95,0.00,,,0.00,weatherlink.com 1.10,2013-02-21 09:45:00,
2013-02-21 05:00:00,59.8,59.0,30.05,NNE,19,4.0,6.0,96,0.00,,,0.00,weatherlink.com 1.10,2013-02-21 10:00:00,
2013-02-21 05:15:00,59.6,58.0,30.05,NNE,27,5.0,5.0,95,0.00,,,0.00,weatherlink.com 1.10,2013-02-21 10:15:00,
2013-02-21 05:30:00,59.7,59.0,30.05,NE,40,2.0,4.0,96,0.00,,,0.00,weatherlink.com 1.10,2013-02-21 10:30:00,
2013-02-21 05:45:00,59.2,58.0,30.06,NNE,28,4.0,4.0,96,0.00,,,0.00,weatherlink.com 1.10,2013-02-21 10:45:00,
2013-02-21 06:00:00,58.8,58.0,30.06,NNE,29,2.0,5.0,96,0.00,,,0.00,weatherlink.com 1.10,2013-02-21 11:00:00,
2013-02-21 06:15:00,59.4,59.0,30.07,NNE,25,2.0,5.0,97,0.00,,,0.00,weatherlink.com 1.10,2013-02-21 11:15:00,
2013-02-21 06:30:00,59.1,58.0,30.07,NNE,27,1.0,6.0,96,0.00,,,0.00,weatherlink.com 1.10,2013-02-21 11:30:00,
2013-02-21 06:45:00,59.7,59.0,30.08,NE,41,2.0,4.0,97,0.00,,,0.00,weatherlink.com 1.10,2013-02-21 11:45:00,
2013-02-21 07:00:00,59.6,59.0,30.07,ESE,109,0.0,7.0,97,0.00,,,0.00,weatherlink.com 1.10,2013-02-21 12:00:00,
2013-02-21 07:15:00,59.4,59.0,30.08,ESE,109,0.0,3.0,97,0.00,,,0.00,weatherlink.com 1.10,2013-02-21 12:15:00,
2013-02-21 07:30:00,59.8,59.0,30.07,ESE,109,0.0,2.0,96,0.00,,,0.00,weatherlink.com 1.10,2013-02-21 12:30:00,
2013-02-21 07:45:00,60.6,60.0,30.09,ESE,109,0.0,2.0,96,0.00,,,0.00,weatherlink.com 1.10,2013-02-21 12:45:00,
2013-02-21 08:00:00,61.8,61.0,30.09,NE,47,5.0,8.0,96,0.00,,,0.00,weatherlink.com 1.10,2013-02-21 13:00:00,
2013-02-21 08:15:00,62.3,61.0,30.11,ENE,77,3.0,5.0,95,0.00,,,0.00,weatherlink.com 1.10,2013-02-21 13:15:00,
2013-02-21 08:30:00,63.0,62.0,30.11,NE,51,3.0,7.0,95,0.00,,,0.00,weatherlink.com 1.10,2013-02-21 13:30:00,
2013-02-21 08:45:00,63.9,62.0,30.11,ENE,57,5.0,7.0,94,0.00,,,0.00,weatherlink.com 1.10,2013-02-21 13:45:00,
2013-02-21 09:00:00,65.6,63.0,30.12,East,84,5.0,9.0,92,0.00,,,0.00,weatherlink.com 1.10,2013-02-21 14:00:00,
2013-02-21 09:15:00,66.3,64.0,30.12,East,92,6.0,8.0,91,0.00,,,0.00,weatherlink.com 1.10,2013-02-21 14:15:00,
2013-02-21 09:30:00,67.1,64.0,30.12,ESE,108,5.0,11.0,88,0.00,,,0.00,weatherlink.com 1.10,2013-02-21 14:30:00,
2013-02-21 09:45:00,68.3,64.0,30.12,ESE,109,7.0,8.0,86,0.00,,,0.00,weatherlink.com 1.10,2013-02-21 14:45:00,
2013-02-21 10:01:00,70.2,66.0,30.11,ESE,121,3.0,9.0,85,0.00,,,0.00,weatherlink.com 1.10,2013-02-21 15:01:00,
2013-02-21 10:16:00,71.2,67.0,30.12,East,96,6.0,9.0,85,0.00,,,0.00,weatherlink.com 1.10,2013-02-21 15:16:00,
2013-02-21 10:31:00,72.1,65.0,30.12,SE,144,5.0,8.0,79,0.00,,,0.00,weatherlink.com 1.10,2013-02-21 15:31:00,
2013-02-21 10:46:00,73.3,65.0,30.11,SE,139,8.0,11.0,76,0.00,,,0.00,weatherlink.com 1.10,2013-02-21 15:46:00,
2013-02-21 11:01:00,73.7,66.0,30.11,South,171,7.0,10.0,76,0.00,,,0.00,weatherlink.com 1.10,2013-02-21 16:01:00,
2013-02-21 11:16:00,74.9,66.0,30.11,South,177,5.0,10.0,74,0.00,,,0.00,weatherlink.com 1.10,2013-02-21 16:16:00,
2013-02-21 11:31:00,75.5,65.0,30.10,SE,143,6.0,9.0,71,0.00,,,0.00,weatherlink.com 1.10,2013-02-21 16:31:00,
2013-02-21 11:46:00,76.4,66.0,30.10,SE,130,4.0,11.0,69,0.00,,,0.00,weatherlink.com 1.10,2013-02-21 16:46:00,
2013-02-21 12:01:00,76.5,66.0,30.10,ESE,121,4.0,8.0,69,0.00,,,0.00,weatherlink.com 1.10,2013-02-21 17:01:00,
2013-02-21 12:16:00,76.1,63.0,30.09,South,180,3.0,7.0,65,0.00,,,0.00,weatherlink.com 1.10,2013-02-21 17:16:00,
2013-02-21 12:31:00,76.7,64.0,30.08,SSW,205,6.0,10.0,66,0.00,,,0.00,weatherlink.com 1.10,2013-02-21 17:31:00,
2013-02-21 12:46:00,77.5,63.0,30.07,SE,138,4.0,10.0,62,0.00,,,0.00,weatherlink.com 1.10,2013-02-21 17:46:00,
2013-02-21 13:01:00,78.5,64.0,30.06,SE,131,7.0,10.0,61,0.00,,,0.00,weatherlink.com 1.10,2013-02-21 18:01:00,
2013-02-21 13:16:00,78.9,63.0,30.06,South,189,3.0,9.0,58,0.00,,,0.00,weatherlink.com 1.10,2013-02-21 18:16:00,
2013-02-21 13:31:00,79.0,63.0,30.05,SW,219,5.0,11.0,58,0.00,,,0.00,weatherlink.com 1.10,2013-02-21 18:31:00,
2013-02-21 13:46:00,78.4,64.0,30.04,SSW,198,5.0,10.0,61,0.00,,,0.00,weatherlink.com 1.10,2013-02-21 18:46:00,
2013-02-21 14:01:00,79.0,62.0,30.04,SW,223,6.0,10.0,57,0.00,,,0.00,weatherlink.com 1.10,2013-02-21 19:01:00,
2013-02-21 14:16:00,79.7,64.0,30.03,SW,214,5.0,12.0,58,0.00,,,0.00,weatherlink.com 1.10,2013-02-21 19:16:00,
2013-02-21 14:31:00,80.1,63.0,30.02,SSW,199,6.0,11.0,56,0.00,,,0.00,weatherlink.com 1.10,2013-02-21 19:31:00,
2013-02-21 14:46:00,79.6,63.0,30.02,SSW,211,6.0,7.0,57,0.00,,,0.00,weatherlink.com 1.10,2013-02-21 19:46:00,
2013-02-21 15:01:00,80.0,62.0,30.02,SSW,196,5.0,7.0,55,0.00,,,0.00,weatherlink.com 1.10,2013-02-21 20:01:00,
2013-02-21 15:16:00,80.5,62.0,30.02,SSW,202,1.0,8.0,54,0.00,,,0.00,weatherlink.com 1.10,2013-02-21 20:16:00,
2013-02-21 15:31:00,81.4,62.0,30.01,SSW,196,7.0,9.0,52,0.00,,,0.00,weatherlink.com 1.10,2013-02-21 20:31:00,
2013-02-21 15:46:00,81.2,62.0,30.00,SSE,168,5.0,9.0,52,0.00,,,0.00,weatherlink.com 1.10,2013-02-21 20:46:00,
2013-02-21 16:01:00,81.0,62.0,30.00,SSE,153,5.0,9.0,52,0.00,,,0.00,weatherlink.com 1.10,2013-02-21 21:01:00,
2013-02-21 16:16:00,80.8,62.0,30.00,South,186,5.0,8.0,53,0.00,,,0.00,weatherlink.com 1.10,2013-02-21 21:16:00,
2013-02-21 16:31:00,81.2,63.0,30.00,SSW,200,4.0,5.0,54,0.00,,,0.00,weatherlink.com 1.10,2013-02-21 21:31:00,
2013-02-21 16:46:00,81.4,63.0,30.00,SE,136,2.0,5.0,53,0.00,,,0.00,weatherlink.com 1.10,2013-02-21 21:46:00,
2013-02-21 17:01:00,80.7,63.0,29.99,South,173,4.0,7.0,55,0.00,,,0.00,weatherlink.com 1.10,2013-02-21 22:01:00,
2013-02-21 17:16:00,80.6,62.0,29.99,SE,132,6.0,9.0,54,0.00,,,0.00,weatherlink.com 1.10,2013-02-21 22:16:00,
2013-02-21 17:32:00,79.9,62.0,29.99,SE,133,4.0,6.0,55,0.00,,,0.00,weatherlink.com 1.10,2013-02-21 22:32:00,
2013-02-21 17:47:00,79.2,63.0,29.99,SE,133,0.0,4.0,57,0.00,,,0.00,weatherlink.com 1.10,2013-02-21 22:47:00,
2013-02-21 18:02:00,79.0,63.0,29.99,SSE,158,4.0,4.0,58,0.00,,,0.00,weatherlink.com 1.10,2013-02-21 23:02:00,
2013-02-21 18:17:00,77.3,62.0,30.00,SSW,198,3.0,4.0,60,0.00,,,0.00,weatherlink.com 1.10,2013-02-21 23:17:00,
2013-02-21 18:32:00,77.1,63.0,30.00,SSW,198,2.0,4.0,62,0.00,,,0.00,weatherlink.com 1.10,2013-02-21 23:32:00,
2013-02-21 18:47:00,76.4,64.0,30.00,SSW,198,0.0,2.0,65,0.00,,,0.00,weatherlink.com 1.10,2013-02-21 23:47:00,
2013-02-21 19:02:00,75.3,63.0,30.01,SSW,198,3.0,3.0,66,0.00,,,0.00,weatherlink.com 1.10,2013-02-22 00:02:00,
2013-02-21 19:17:00,75.2,63.0,30.01,SSW,198,1.0,3.0,67,0.00,,,0.00,weatherlink.com 1.10,2013-02-22 00:17:00,
2013-02-21 19:32:00,75.1,65.0,30.02,WNW,298,6.0,7.0,70,0.00,,,0.00,weatherlink.com 1.10,2013-02-22 00:32:00,
2013-02-21 19:47:00,74.5,65.0,30.02,WNW,288,4.0,7.0,71,0.00,,,0.00,weatherlink.com 1.10,2013-02-22 00:47:00,
2013-02-21 20:02:00,73.8,65.0,30.02,NW,308,4.0,7.0,74,0.00,,,0.00,weatherlink.com 1.10,2013-02-22 01:02:00,
2013-02-21 20:17:00,73.6,66.0,30.03,NW,311,6.0,7.0,76,0.00,,,0.00,weatherlink.com 1.10,2013-02-22 01:17:00,
2013-02-21 20:32:00,73.2,65.0,30.03,WNW,302,5.0,8.0,76,0.00,,,0.00,weatherlink.com 1.10,2013-02-22 01:32:00,
2013-02-21 20:47:00,72.6,65.0,30.03,NNW,327,5.0,7.0,77,0.00,,,0.00,weatherlink.com 1.10,2013-02-22 01:47:00,
2013-02-21 21:02:00,72.4,65.0,30.03,WNW,300,3.0,7.0,77,0.00,,,0.00,weatherlink.com 1.10,2013-02-22 02:02:00,
2013-02-21 21:17:00,72.4,65.0,30.03,WNW,294,5.0,6.0,77,0.00,,,0.00,weatherlink.com 1.10,2013-02-22 02:17:00,
2013-02-21 21:47:00,72.6,67.0,30.05,NE,39,5.0,9.0,81,0.00,,,0.00,weatherlink.com 1.10,2013-02-22 02:47:00,
2013-02-21 22:02:00,71.6,65.0,30.05,North,360,3.0,4.0,79,0.00,,,0.00,weatherlink.com 1.10,2013-02-22 03:02:00,
2013-02-21 22:17:00,71.3,64.0,30.05,North,360,2.0,3.0,78,0.00,,,0.00,weatherlink.com 1.10,2013-02-22 03:17:00,
2013-02-21 22:32:00,71.0,64.0,30.05,North,360,0.0,1.0,79,0.00,,,0.00,weatherlink.com 1.10,2013-02-22 03:32:00,
2013-02-21 22:47:00,70.6,65.0,30.04,North,360,1.0,1.0,81,0.00,,,0.00,weatherlink.com 1.10,2013-02-22 03:47:00,
2013-02-21 23:02:00,69.6,65.0,30.04,NNE,26,0.0,3.0,86,0.00,,,0.00,weatherlink.com 1.10,2013-02-22 04:02:00,
2013-02-21 23:17:00,69.4,64.0,30.05,NNE,27,2.0,3.0,84,0.00,,,0.00,weatherlink.com 1.10,2013-02-22 04:17:00,
2013-02-21 23:32:00,69.4,64.0,30.04,SE,146,2.0,4.0,84,0.00,,,0.00,weatherlink.com 1.10,2013-02-22 04:32:00,
2013-02-21 23:47:00,69.4,64.0,30.05,SSW,207,5.0,6.0,84,0.00,,,0.00,weatherlink.com 1.10,2013-02-22 04:47:00,